OPS 4682 DEB, 19355

Orbit data source: Space-Track

OPS 4682 DEB, 19355 is space debris in LEO originally from a launch on Sat, 03 Apr 1965 UTC launched from the Air Force Western Test Range (AFWTR). Debris objects in space refer to the collection of defunct objects orbiting the Earth. Examples of debris include non-operational satellites, rocket bodies, and fragments generated from explosions, collisions, or faulty payload assembly.

Loading next visibility...
Identifier
19355, 1965-027AT
Orbit
LEO
Country
Flag of USUS
Related business
Manufacturer
Unknown
Mission
Spacecraft
Bus & Motor
Unknown
Mass
Unknown
Launch date (UTC)
1965-04-03 (61 years ago)
Launch vehicle
Unknown
Launch site
Air Force Western Test Range (AFWTR)
Object type
Payload
Rocket body
Debris
Shape & HBR
Unknown shape, 0.1 m
Radar Cross Section
Medium (>0.1 m² and <1 m²)

Expand to show TLE details & history
Last TLE update: 9 hours ago

TLE from 9 hours ago
0 OPS 4682 DEB
1 19355U 65027AT  26263.20437536  .00000356  00000-0  11809-2 0  9997
2 19355  90.2401 359.5913 0045468 156.5082 232.3408 12.98285105815030
Epoch: 2026-09-20T04:54Z
TLE epoch observation values (Epoch: 2026-09-20T04:54:18.031Z)
Latitude
28.47752°
Longitude
-73.21533°
Altitude
1,293.675 km
Speed
7.202 km/s
True Right ascension
23h 57m 50s
True Declination
28° 20' 37"
Sunlit
Object was in full shadow at epoch
Visualization orbit readout
Latitude
Unknown
Longitude
Unknown
Altitude
Unknown
Speed
Unknown
Apparent Right ascension
Unknown
Apparent Declination
Unknown
Sunlit
N/A
Visualization observer readout
Local Sidereal Time
06:58:20
Azimuth
Unknown
Elevation
Unknown
Doppler factor
Unknown
Orbital elements
Apogee altitude
1,300.699 km
Perigee altitude
1,231.186 km
Semi-major axis
7,644.08 km
Eccentricity
0.00455
Inclination
90.2401°
RAAN
359.5913°
Arg. of periapsis
156.5082°
True anomaly
231.92976°
Mean anomaly
232.3408°
Eccentric anomaly
232.13514°
Mean motion
3.24755 °/min
Orbital period
110.85 mins
BSTAR
0.0011809
Loading maneuver chart data...
Computing Atmospheric mass density...
Loading historical data...
Loading historical data...
Loading historical data...
Loading historical data...
Loading historical data...
Loading historical data...
Loading historical data...

Documentation

Showing up to 5 results
|